ICT,Max TemperatureF,Mean TemperatureF,Min TemperatureF,Max Dew PointF,MeanDew PointF,Min DewpointF,Max Humidity, Mean Humidity, Min Humidity, Max Sea Level PressureIn, Mean Sea Level PressureIn, Min Sea Level PressureIn, Max VisibilityMiles, Mean VisibilityMiles, Min VisibilityMiles, Max Wind SpeedMPH, Mean Wind SpeedMPH, Max Gust SpeedMPH,PrecipitationIn, CloudCover, Events, WindDirDegrees
2013-6-1,90,83,76,78,75,73,89,75,62,29.83,29.77,29.68,6,6,1,17,5,,0.55,5,Rain,292
2013-6-2,90,82,74,78,75,72,98,86,74,29.83,29.75,29.67,6,5,2,18,8,,0.55,6,Rain-Thunderstorm,290
2013-6-3,87,80,73,77,75,73,94,82,65,29.80,29.74,29.62,6,5,3,17,5,29,0.12,6,Rain,255
2013-6-4,85,78,72,79,75,73,96,82,70,29.83,29.78,29.71,6,5,1,18,3,,2.44,6,Rain,246
2013-6-5,90,83,76,77,75,73,94,75,58,29.86,29.80,29.73,6,5,4,17,7,,0.03,6,Rain,266
2013-6-6,87,81,75,79,75,73,95,81,62,29.83,29.80,29.74,6,6,5,9,2,,0.00,6,,296
2013-6-7,88,80,73,78,75,73,94,78,62,29.83,29.80,29.77,6,6,5,14,3,,0.00,4,,287
2013-6-8,90,82,75,78,76,75,89,74,61,29.83,29.77,29.70,6,6,5,16,6,,0.00,3,,275
2013-6-9,88,82,75,79,76,73,89,78,66,29.80,29.75,29.68,6,5,2,21,12,29,0.39,6,Rain,268
2013-6-10,86,82,77,79,76,73,94,83,70,29.77,29.72,29.65,5,4,1,23,12,32,0.35,6,Rain,257
2013-6-11,85,79,73,79,75,72,94,84,74,29.77,29.71,29.65,6,4,1,18,7,30,0.63,6,Rain,248
2013-6-12,88,82,76,77,74,72,89,77,63,29.77,29.72,29.67,6,4,2,23,14,34,0.04,6,Rain,252
2013-6-13,84,80,76,76,74,72,90,79,68,29.77,29.72,29.66,6,4,2,23,11,29,0.67,6,Rain,255
2013-6-14,86,80,75,77,75,73,94,83,71,29.74,29.70,29.65,6,4,0,17,9,34,2.72,6,Rain,252
2013-6-15,84,78,73,79,75,73,94,84,71,29.77,29.71,29.65,5,4,0,29,6,44,1.46,6,Rain,251
2013-6-16,84,78,73,79,75,73,94,86,78,29.77,29.72,29.66,6,4,1,24,9,55,1.61,6,Rain,279
2013-6-17,88,80,73,79,75,73,84,76,66,29.77,29.71,29.65,6,4,1,28,12,41,0.24,6,Rain,254
2013-6-18,86,80,75,76,75,73,89,77,66,29.74,29.70,29.65,6,5,3,22,14,33,0.12,6,Rain,247
2013-6-19,85,80,76,78,75,73,89,79,70,29.80,29.73,29.68,6,4,1,24,12,39,0.67,6,Rain,256
2013-6-20,88,81,74,78,75,73,84,74,62,29.83,29.78,29.72,6,4,3,21,13,33,0.00,6,,256
2013-6-21,87,84,81,78,75,73,79,72,66,29.83,29.79,29.73,5,5,4,20,13,,0.00,6,,256
2013-6-22,89,82,75,79,75,73,79,73,62,29.80,29.76,29.69,6,5,4,20,12,,0.00,6,,253
2013-6-23,88,82,76,78,75,73,79,72,65,29.83,29.76,29.70,6,6,6,20,11,29,0.00,6,,254
2013-6-24,92,84,76,79,75,70,94,71,52,29.89,29.81,29.75,6,6,2,12,6,,0.03,6,Rain,240
2013-6-25,89,82,75,79,76,73,94,81,62,29.92,29.87,29.81,6,5,3,14,3,,0.00,4,,287
2013-6-26,88,82,75,77,75,73,94,80,61,29.92,29.88,29.81,6,5,2,12,3,,0.00,6,Rain,260
2013-6-27,86,80,73,78,75,70,94,80,70,29.89,29.85,29.80,6,5,2,16,3,,0.12,6,Rain,282
2013-6-28,88,84,80,78,75,73,84,74,64,29.89,29.84,29.76,6,5,5,15,7,,0.00,6,,267
2013-6-29,89,84,79,76,74,73,84,73,61,29.89,29.83,29.77,6,6,5,13,6,,0.00,5,,277
2013-6-30,89,82,76,77,75,73,94,77,61,29.89,29.83,29.74,6,6,4,14,4,,0.00,3,Rain,277